THOR ABLESTAR DEB, 18908

Orbit data source: Space-Track

THOR ABLESTAR DEB, 18908 is space debris in LEO originally from a launch on Thu, 29 Jun 1961 UTC launched from the Air Force Eastern Test Range (AFETR). Debris objects in space refer to the collection of defunct objects orbiting the Earth. Examples of debris include non-operational satellites, rocket bodies, and fragments generated from explosions, collisions, or faulty payload assembly.

Loading next visibility...
Identifier
18908, 1961-015LY
Orbit
LEO
Country
Flag of USUS
Related business
Manufacturer
Unknown
Mission
Spacecraft
Bus & Motor
Unknown
Mass
Unknown
Launch date (UTC)
1961-06-29 (64 years ago)
Launch vehicle
Unknown
Launch site
Air Force Eastern Test Range (AFETR)
Object type
Payload
Rocket body
Debris
Shape & HBR
Unknown shape, 0.1 m
Radar Cross Section
Small (<0.1 m²)

Expand to show TLE details & history
Last TLE update: 15 hours ago

TLE from 15 hours ago
0 THOR ABLESTAR DEB
1 18908U 61015LY  25297.84196414  .00097769  00000-0  42113-2 0  9992
2 18908  65.6906 108.2896 0018726  82.4897 277.8366 15.21865719  4688
Epoch: 2025-10-24T20:12Z
TLE epoch observation values (Epoch: 2025-10-24T20:12:25.701Z)
Latitude
0.00003°
Longitude
131.70145°
Altitude
500.593 km
Speed
7.616 km/s
True Right ascension
07h 13m 09s
True Declination
0° 00' 00"
Sunlit
Object was in daylight at epoch
Visualization orbit readout
Latitude
Unknown
Longitude
Unknown
Altitude
Unknown
Speed
Unknown
Apparent Right ascension
Unknown
Apparent Declination
Unknown
Sunlit
N/A
Visualization observer readout
Local Sidereal Time
06:08:11
Azimuth
Unknown
Elevation
Unknown
Doppler factor
Unknown
Orbital elements
Apogee altitude
511.521 km
Perigee altitude
485.766 km
Semi-major axis
6,876.781 km
Eccentricity
0.00187
Inclination
65.6906°
RAAN
108.2896°
Arg. of periapsis
82.4897°
True anomaly
277.62395°
Mean anomaly
277.8366°
Eccentric anomaly
277.73028°
Mean motion
3.80597 °/min
Orbital period
94.59 mins
BSTAR
0.0042113
Loading maneuver chart data...
Computing Atmospheric mass density...

Documentation

Showing up to 5 results
|